Regional Weather Roundup
Issued by NWS Charleston, WV

Home | Current Version | Previous Version | Text Only | Print | Product List | Glossary On
Versions: 1 2 3 4 5 6 7 8 9 10 11 12 13 14 15 16 17 18 19 20 21 22 23 24 25 26 27 28 29 30 31 32 33 34 35 36 37 38 39 40 41 42 43 44 45 46 47 48 49 50
746
ASUS41 KRLX 121210
RWRRLX
West Virginia Regional Weather Roundup
National Weather Service Charleston WV
700 AM EST FRI FEB 12 2016

Note: "fair" indicates few or no clouds below 12,000 feet with no
significant weather and/or obstructions to visibility.

WVZ003-121300-
Northern Panhandle of West Virginia

CITY           SKY/WX    TMP DP  RH WIND       PRES   REMARKS
WHEELING       CLOUDY     8   4  83 S3        30.17F
$$

WVZ009-121300-
Northwest West Virginia

CITY           SKY/WX    TMP DP  RH WIND       PRES   REMARKS
PARKERSBURG    MOCLDY     4  -1  80 CALM      30.24F
$$

WVZ006-121300-
Western West Virginia

CITY           SKY/WX    TMP DP  RH WIND       PRES   REMARKS
HUNTINGTON     CLOUDY    18   6  59 E3        30.20S
$$

WVZ015-121300-
West Central West Virginia

CITY           SKY/WX    TMP DP  RH WIND       PRES   REMARKS
CHARLESTON     CLOUDY    13   8  81 CALM      30.19F
$$

WVZ022-031-121300-
North Central West Virginia

CITY           SKY/WX    TMP DP  RH WIND       PRES   REMARKS
CLARKSBURG     CLOUDY     3  -2  79 CALM      30.19F
MORGANTOWN       N/A      3  -4  72 CALM      30.19F
$$

WVZ025-035-042-045-121300-
Southern West Virginia

CITY           SKY/WX    TMP DP  RH WIND       PRES   REMARKS
BECKLEY        CLOUDY    17   6  62 CALM      30.09S
LOGAN          CLOUDY    19  10  68 CALM      30.12F
BLUEFIELD      CLOUDY    14   7  73 E3        30.07F
LEWISBURG      CLOUDY    13   7  76 CALM      30.13R
$$

WVZ047-121300-
Northern Mountains of West Virginia

CITY           SKY/WX    TMP DP  RH WIND       PRES   REMARKS
ELKINS         CLOUDY     2  -3  80 CALM      30.15S
$$

WVZ052-121300-
Eastern Panhandle of West Virginia

CITY           SKY/WX    TMP DP  RH WIND       PRES   REMARKS
MARTINSBURG      N/A     12   6  77 S3        30.26S
PETERSBURG       N/A     11   7  83 CALM      30.24S
$$




USA.gov is the U.S. government's official web portal to all federal, state and local government web resources and services.